Previsão horária em Sennoe

Hoje, 24 Julho, Sábado

Tempo Temperatura Precipitação Vento Pressão Humidade
00:00 +15°C° 0 mm 1 m/s 739 mmHg 79%
01:00 +14°C° 0 mm 1 m/s 739 mmHg 80%
02:00 +14°C° 0 mm 1 m/s 739 mmHg 82%
03:00 +14°C° 0 mm 1 m/s 739 mmHg 81%
04:00 +14°C° 0 mm 1 m/s 740 mmHg 79%
05:00 +15°C° 0 mm 1 m/s 740 mmHg 78%
06:00 +16°C° 0 mm 1 m/s 740 mmHg 74%
07:00 +18°C° 0 mm 1 m/s 740 mmHg 69%
08:00 +18°C° 0 mm 2 m/s 741 mmHg 64%
09:00 +19°C° 0 mm 2 m/s 741 mmHg 57%
10:00 +20°C° 0 mm 2 m/s 741 mmHg 51%
11:00 +21°C° 0 mm 3 m/s 741 mmHg 44%
12:00 +21°C° 0 mm 2 m/s 741 mmHg 44%
13:00 +21°C° 0 mm 2 m/s 742 mmHg 45%
14:00 +21°C° 0 mm 2 m/s 742 mmHg 45%
15:00 +21°C° 0 mm 2 m/s 742 mmHg 44%
16:00 +21°C° 0 mm 2 m/s 742 mmHg 44%
17:00 +22°C° 0 mm 1 m/s 742 mmHg 44%
18:00 +20°C° 0 mm 1 m/s 743 mmHg 52%
19:00 +18°C° 0 mm 1 m/s 743 mmHg 60%
20:00 +15°C° 0 mm 1 m/s 743 mmHg 68%
21:00 +15°C° 0 mm 1 m/s 743 mmHg 67%
22:00 +15°C° 0 mm 1 m/s 744 mmHg 66%
23:00 +15°C° 0 mm 1 m/s 744 mmHg 65%

Amanhã, 25 Julho, Domingo

Tempo Temperatura Precipitação Vento Pressão Humidade
00:00 +15°C° 0 mm 1 m/s 744 mmHg 64%
01:00 +15°C° 0 mm 1 m/s 744 mmHg 63%
02:00 +15°C° 0 mm 1 m/s 745 mmHg 62%
03:00 +15°C° 0 mm 1 m/s 745 mmHg 63%
04:00 +15°C° 0 mm 1 m/s 745 mmHg 64%
05:00 +15°C° 0 mm 1 m/s 745 mmHg 65%
06:00 +16°C° 0 mm 1 m/s 745 mmHg 64%
07:00 +18°C° 0 mm 1 m/s 746 mmHg 62%
08:00 +18°C° 0 mm 1 m/s 746 mmHg 61%
09:00 +20°C° 0 mm 1 m/s 746 mmHg 57%
10:00 +21°C° 0 mm 1 m/s 746 mmHg 53%
11:00 +22°C° 0 mm 1 m/s 746 mmHg 49%
12:00 +24°C° 0 mm 1 m/s 746 mmHg 45%
13:00 +25°C° 0 mm 1 m/s 746 mmHg 41%
14:00 +26°C° 0 mm 1 m/s 746 mmHg 37%
15:00 +25°C° 0 mm 1 m/s 746 mmHg 42%
16:00 +24°C° 0 mm 1 m/s 746 mmHg 47%
17:00 +24°C° 0 mm 1 m/s 746 mmHg 52%
18:00 +22°C° 0 mm 1 m/s 746 mmHg 55%
19:00 +21°C° 0 mm 1 m/s 746 mmHg 58%
20:00 +20°C° 0 mm 1 m/s 747 mmHg 61%
21:00 +19°C° 0 mm 1 m/s 747 mmHg 63%
22:00 +18°C° 0 mm 1 m/s 747 mmHg 65%
23:00 +17°C° 0 mm 2 m/s 747 mmHg 67%

Depois de amanhã, 26 Julho, Segunda-feira

Tempo Temperatura Precipitação Vento Pressão Humidade
00:00 +16°C° 0 mm 2 m/s 747 mmHg 67%
01:00 +16°C° 0 mm 2 m/s 747 mmHg 68%
02:00 +16°C° 0 mm 2 m/s 747 mmHg 68%
03:00 +16°C° 0 mm 2 m/s 747 mmHg 72%
04:00 +16°C° 0 mm 1 m/s 748 mmHg 75%
05:00 +16°C° 0 mm 1 m/s 748 mmHg 78%
06:00 +18°C° 0 mm 2 m/s 748 mmHg 71%
07:00 +20°C° 0 mm 2 m/s 748 mmHg 65%
08:00 +21°C° 0 mm 2 m/s 748 mmHg 58%
09:00 +24°C° 0 mm 2 m/s 748 mmHg 54%
10:00 +25°C° 0 mm 3 m/s 748 mmHg 51%
11:00 +26°C° 0 mm 3 m/s 748 mmHg 47%
12:00 +26°C° 0 mm 3 m/s 748 mmHg 47%
13:00 +26°C° 0 mm 3 m/s 748 mmHg 48%
14:00 +26°C° 0 mm 2 m/s 748 mmHg 48%
15:00 +25°C° 0 mm 2 m/s 748 mmHg 51%
16:00 +25°C° 0 mm 2 m/s 748 mmHg 55%
17:00 +24°C° 0 mm 2 m/s 748 mmHg 58%
18:00 +23°C° 0 mm 2 m/s 747 mmHg 63%
19:00 +21°C° 0 mm 2 m/s 747 mmHg 67%
20:00 +19°C° 0 mm 2 m/s 747 mmHg 72%
21:00 +18°C° 0 mm 2 m/s 748 mmHg 74%
22:00 +18°C° 0 mm 2 m/s 748 mmHg 75%
23:00 +17°C° 0 mm 2 m/s 748 mmHg 77%

27 Julho, Terça-feira

Tempo Temperatura Precipitação Vento Pressão Humidade
00:00 +16°C° 0 mm 1 m/s 748 mmHg 79%
01:00 +16°C° 0 mm 1 m/s 748 mmHg 81%
02:00 +15°C° 0 mm 1 m/s 748 mmHg 83%
03:00 +16°C° 0 mm 1 m/s 748 mmHg 84%
04:00 +16°C° 0 mm 1 m/s 748 mmHg 84%
05:00 +16°C° 0 mm 1 m/s 748 mmHg 85%
06:00 +19°C° 0 mm 1 m/s 748 mmHg 76%
07:00 +20°C° 0 mm 2 m/s 748 mmHg 68%
08:00 +23°C° 0 mm 2 m/s 748 mmHg 59%
09:00 +25°C° 0 mm 2 m/s 748 mmHg 54%
10:00 +26°C° 0 mm 2 m/s 748 mmHg 49%
11:00 +28°C° 0 mm 2 m/s 747 mmHg 44%
12:00 +28°C° 0 mm 2 m/s 747 mmHg 42%
13:00 +29°C° 0 mm 2 m/s 747 mmHg 41%
14:00 +29°C° 0 mm 2 m/s 746 mmHg 39%
15:00 +28°C° 0 mm 2 m/s 746 mmHg 46%
16:00 +26°C° 0 mm 1 m/s 746 mmHg 54%
17:00 +25°C° 0 mm 1 m/s 746 mmHg 61%
18:00 +24°C° 0 mm 1 m/s 746 mmHg 63%
19:00 +23°C° 0 mm 1 m/s 745 mmHg 65%
20:00 +22°C° 0 mm 1 m/s 745 mmHg 66%
21:00 +21°C° 0 mm 1 m/s 745 mmHg 69%
22:00 +21°C° 0 mm 1 m/s 745 mmHg 72%
23:00 +20°C° 0 mm 1 m/s 745 mmHg 74%

28 Julho, Quarta-feira

Tempo Temperatura Precipitação Vento Pressão Humidade
00:00 +19°C° 0 mm 1 m/s 745 mmHg 76%
01:00 +19°C° 0 mm 1 m/s 745 mmHg 77%
02:00 +18°C° 0 mm 2 m/s 745 mmHg 79%
03:00 +18°C° 0 mm 2 m/s 744 mmHg 78%
04:00 +18°C° 0 mm 2 m/s 744 mmHg 77%
05:00 +18°C° 0 mm 2 m/s 744 mmHg 76%
06:00 +20°C° 0 mm 2 m/s 744 mmHg 68%
07:00 +23°C° 0 mm 2 m/s 744 mmHg 60%
08:00 +25°C° 0 mm 3 m/s 744 mmHg 52%
09:00 +26°C° 0 mm 3 m/s 743 mmHg 47%
10:00 +28°C° 0 mm 3 m/s 743 mmHg 43%
11:00 +29°C° 0 mm 3 m/s 743 mmHg 38%
12:00 +29°C° 0 mm 3 m/s 742 mmHg 37%
13:00 +29°C° 0 mm 3 m/s 742 mmHg 36%
14:00 +30°C° 0 mm 3 m/s 741 mmHg 36%
15:00 +28°C° 0 mm 4 m/s 741 mmHg 44%
16:00 +27°C° 0 mm 4 m/s 741 mmHg 52%
17:00 +25°C° 0 mm 4 m/s 741 mmHg 61%
18:00 +22°C° 0.1 mm 3 m/s 741 mmHg 70%
19:00 +21°C° 0.1 mm 2 m/s 741 mmHg 80%
20:00 +19°C° 0.1 mm 2 m/s 741 mmHg 89%
21:00 +18°C° 0.1 mm 2 m/s 740 mmHg 91%
22:00 +19°C° 0.1 mm 1 m/s 740 mmHg 93%
23:00 +19°C° 0.1 mm 1 m/s 739 mmHg 95%

29 Julho, Quinta-feira

Tempo Temperatura Precipitação Vento Pressão Humidade
00:00 +18°C° 0.3 mm 1 m/s 739 mmHg 95%
01:00 +18°C° 0.3 mm 1 m/s 739 mmHg 96%
02:00 +18°C° 0.3 mm 1 m/s 739 mmHg 96%
03:00 +18°C° 0 mm 1 m/s 738 mmHg 96%
04:00 +18°C° 0 mm 1 m/s 738 mmHg 96%
05:00 +16°C° 0 mm 0 m/s 738 mmHg 96%
06:00 +19°C° 0 mm 1 m/s 738 mmHg 91%
07:00 +20°C° 0 mm 1 m/s 738 mmHg 86%
08:00 +21°C° 0 mm 1 m/s 738 mmHg 81%
09:00 +23°C° 0.1 mm 2 m/s 738 mmHg 75%
10:00 +25°C° 0.1 mm 2 m/s 738 mmHg 68%
11:00 +26°C° 0.1 mm 3 m/s 738 mmHg 62%
12:00 +27°C° 0.1 mm 4 m/s 738 mmHg 59%
13:00 +27°C° 0.1 mm 4 m/s 738 mmHg 55%
14:00 +28°C° 0.1 mm 4 m/s 737 mmHg 52%
15:00 +28°C° 0 mm 4 m/s 737 mmHg 52%
16:00 +28°C° 0 mm 4 m/s 737 mmHg 53%
17:00 +28°C° 0 mm 3 m/s 737 mmHg 53%
18:00 +25°C° 0 mm 3 m/s 737 mmHg 63%
19:00 +23°C° 0 mm 2 m/s 738 mmHg 73%
20:00 +21°C° 0 mm 1 m/s 738 mmHg 82%
21:00 +21°C° 0 mm 1 m/s 738 mmHg 84%
22:00 +20°C° 0 mm 1 m/s 738 mmHg 86%
23:00 +18°C° 0 mm 0 m/s 738 mmHg 88%
Mostrar mais

Necessitamos do seu Consentimento

A Meteoprog e os seus Fornecedores de Serviços podem armazenar e aceder a dados pessoais como cookies, identificadores do dispositivo ou outras tecnologias semelhantes existentes no seu dispositivo e processar estes dados para personalizar conteúdos e anúncios, assim como funcionalidades nas redes sociais e análise de tráfego.

  • Armazenar e/ou aceder a informações no seu dispositivo

    Os cookies, identificadores do dispositivo ou outras informações podem ser armazenados ou acedidos no seu dispositivo, para os fins acima indicados.

  • Anúncios e conteúdos personalizados, medição de anúncios e conteúdos, dados sobre o público-alvo e desenvolvimento de produtos

    Os anúncios e os conteúdos podem ser personalizados com base num perfil. Podem ser adicionados dados adicionais para uma maior personalização dos anúncios e dos conteúdos. A eficácia dos anúncios e dos conteúdos pode ser medida. Podem ser obtidas informações sobre o público que visualizou os anúncios e os conteúdos. Estes dados podem ser usados para desenvolver ou melhorar sistemas, softwares ou a experiência do utilizador.

Ao clicar em "Eu concordo”, permitirá o uso de cookies, identificadores do dispositivo e web beacons mencionados ou outras tecnologias semelhantes. As configurações do navegador do seu dispositivo podem ser alteradas.

Para certos fins, podem ser invocados interesses legítimos ao invés de consentimento. Pode ler mais informação sobre este assunto na nossa Política de Privacidade e Cookies.